Terug naar catalogus

STARLINK-34517

ActiefCommunicatieVLEO
NORAD 64595·PAYLOAD·🇺🇸 United States

Gelanceerd Jun 25, 2025 vanaf Cape Canaveral Space Force Station

Loading…

Volgende Passages (komende 24 uur)

TLE

VersSource: CelesTrak SupGP

Epoch: Sep 15, 2026, 03:32 UTC

1 64595C 25137B   26258.14770833  .00036252  00000+0  10718-2 0  2587
2 64595  53.1582 172.4061 0001374  91.7639 193.2497 15.34350120    16

Volg STARLINK-34517 in realtime met AllMySat

Download on the App Store